Location: Unspecified
(0.0000°N, 0.0000°E)
Time: 06:03:45
(UTC+00:00)

Vanguard 2 - Pass Details

Date: 19 September 2019
Orbit: 554 x 2937 km, 32.9° (Epoch: 14 October)

Event Time Altitude Azimuth Distance (km) Brightness Sun altitude
Rises 02:23:00 0° 261° (W) 6,729 - -52.7°
Reaches altitude 10° 02:28:43 10° 270° (W) 5,540 - -51.3°
Maximum altitude 02:41:29 29° 323° (NW) 3,499 - -48.1°
Exits shadow 02:47:35 20° 3° (N) 3,557 10.8 -46.6°
Drops below altitude 10° 02:50:47 10° 19° (NNE) 3,970 11.3 -45.8°
Sets 02:54:08 0° 31° (NNE) 4,613 11.8 -45.0°
